Vilnius International Airport

Airport
ICAO code: 
EYVI
IATA Code: 
VNTO
Summary
ICAO Region: 
EUR
Territory: 
Location: 
Porubanek, Vilnius District
Serving: 
Vilnius
Elevation: 
646 ft
Coordinates: 
Aerial View: 
54° 38' 12.984" N, 25° 17' 16.008" E
Metar
Observation
EYVI 012050Z 15009KT 9999 FEW006 BKN053 M03/M04 Q0994 TEMPO 1500 SN
Station
Vilnius
Date/Time
2021-12-01 20:50:00
Wind direction
150°
Wind speed
09 kts
Lowest cloud amount
few clouds
Temperature
-3°C
Dew point
-4°C
Humidity
92%
QNH
994 hPa
Weather condition
n/a

Vilnius Airport is the largest civil airport in Lithuania. It is located 5.9 km south of Vilnius, the capital of Lithuania.

Climatology

Humid continental climate (Köppen climate classification Dfb)

Runways

Designator Length Width Surface Rops
2/20 2515 50 ASP Yes/Yes
Airport map: 
Aerial View: 

SKYbrary Partners:

Safety knowledge contributed by: